Time,TemperatureF,DewpointF,PressureIn,WindDirection,WindDirectionDegrees,WindSpeedMPH,WindSpeedGustMPH,Humidity,HourlyPrecipIn,Conditions,Clouds,dailyrainin,SoftwareType,DateUTC
2013-08-13 00:01:00,69.2,60.0,29.35,West,270,0.0,0.0,72,-99.99,,,-99.99,WSDL version 342,2013-08-13 04:01:00,
2013-08-13 00:02:00,69.1,60.0,29.35,West,270,0.0,0.0,72,-99.99,,,-99.99,WSDL version 342,2013-08-13 04:02:00,
2013-08-13 00:04:00,69.0,59.8,29.35,West,270,0.0,0.0,72,-99.99,,,-99.99,WSDL version 342,2013-08-13 04:04:00,
2013-08-13 00:07:00,68.9,59.8,29.35,West,270,0.0,0.0,74,-99.99,,,-99.99,WSDL version 342,2013-08-13 04:07:00,
2013-08-13 00:08:00,68.9,59.8,29.35,West,270,0.0,0.0,74,-99.99,,,-99.99,WSDL version 342,2013-08-13 04:08:00,
2013-08-13 00:13:00,68.9,60.7,29.35,WSW,248,0.0,0.0,75,-99.99,,,-99.99,WSDL version 342,2013-08-13 04:13:00,
2013-08-13 00:18:00,69.0,61.3,29.35,WSW,248,0.0,0.9,77,-99.99,,,-99.99,WSDL version 342,2013-08-13 04:18:00,
2013-08-13 00:23:00,69.1,61.8,29.35,WSW,248,0.0,0.9,78,-99.99,,,-99.99,WSDL version 342,2013-08-13 04:23:00,
2013-08-13 00:28:00,69.3,61.9,29.35,WNW,296,0.0,1.6,78,-99.99,,,-99.99,WSDL version 342,2013-08-13 04:28:00,
2013-08-13 00:33:00,69.3,62.3,29.32,NE,45,0.0,1.6,79,-99.99,,,-99.99,WSDL version 342,2013-08-13 04:33:00,
2013-08-13 00:38:00,69.3,62.5,29.32,NE,45,0.0,0.0,79,-99.99,,,-99.99,WSDL version 342,2013-08-13 04:38:00,
2013-08-13 00:43:00,69.1,62.3,29.32,NE,45,0.0,0.0,79,-99.99,,,-99.99,WSDL version 342,2013-08-13 04:43:00,
2013-08-13 00:48:00,69.1,62.5,29.32,NE,45,0.0,0.0,80,-99.99,,,-99.99,WSDL version 342,2013-08-13 04:48:00,
2013-08-13 00:53:00,68.9,62.5,29.32,NE,45,0.0,0.0,80,-99.99,,,-99.99,WSDL version 342,2013-08-13 04:53:00,
2013-08-13 00:58:00,68.8,62.7,29.32,NE,45,0.0,0.0,81,-99.99,,,-99.99,WSDL version 342,2013-08-13 04:58:00,
2013-08-13 01:03:00,68.7,62.7,29.32,NE,45,0.0,0.0,81,-99.99,,,-99.99,WSDL version 342,2013-08-13 05:03:00,
2013-08-13 01:08:00,68.6,62.6,29.32,NE,45,0.0,0.0,81,-99.99,,,-99.99,WSDL version 342,2013-08-13 05:08:00,
2013-08-13 01:13:00,68.5,62.6,29.29,NE,45,0.0,0.0,82,-99.99,,,-99.99,WSDL version 342,2013-08-13 05:13:00,
2013-08-13 01:18:00,68.5,62.9,29.29,NE,45,0.0,0.0,82,-99.99,,,-99.99,WSDL version 342,2013-08-13 05:18:00,
2013-08-13 01:23:00,68.4,62.7,29.29,NE,45,0.0,0.0,82,-99.99,,,-99.99,WSDL version 342,2013-08-13 05:23:00,
2013-08-13 01:28:00,68.4,62.7,29.32,NE,45,0.0,0.0,82,-99.99,,,-99.99,WSDL version 342,2013-08-13 05:28:00,
2013-08-13 01:33:00,68.2,62.6,29.32,NE,45,0.0,0.0,82,-99.99,,,-99.99,WSDL version 342,2013-08-13 05:33:00,
2013-08-13 01:38:00,68.2,62.7,29.32,NE,45,0.0,0.0,83,-99.99,,,-99.99,WSDL version 342,2013-08-13 05:38:00,
2013-08-13 01:43:00,68.2,63.0,29.32,NE,45,0.0,0.0,84,-99.99,,,-99.99,WSDL version 342,2013-08-13 05:43:00,
2013-08-13 01:48:00,68.2,63.3,29.32,NE,45,0.0,0.0,84,-99.99,,,-99.99,WSDL version 342,2013-08-13 05:48:00,
2013-08-13 01:53:00,68.2,63.3,29.32,NE,45,0.0,0.0,84,-99.99,,,-99.99,WSDL version 342,2013-08-13 05:53:00,
2013-08-13 01:58:00,68.2,63.0,29.32,NE,45,0.0,0.0,83,-99.99,,,-99.99,WSDL version 342,2013-08-13 05:58:00,
2013-08-13 02:03:00,68.4,63.5,29.32,NE,45,0.0,0.0,84,-99.99,,,-99.99,WSDL version 342,2013-08-13 06:03:00,
2013-08-13 02:08:00,68.4,63.9,29.32,NE,45,0.0,0.0,86,-99.99,,,-99.99,WSDL version 342,2013-08-13 06:08:00,
2013-08-13 02:13:00,68.4,63.9,29.32,NE,45,0.0,0.0,86,-99.99,,,-99.99,WSDL version 342,2013-08-13 06:13:00,
2013-08-13 02:18:00,68.4,63.9,29.32,NE,45,0.0,0.0,86,-99.99,,,-99.99,WSDL version 342,2013-08-13 06:18:00,
2013-08-13 02:23:00,68.4,63.5,29.32,NE,45,0.0,0.0,84,-99.99,,,-99.99,WSDL version 342,2013-08-13 06:23:00,
2013-08-13 02:28:00,68.4,63.9,29.32,NE,45,0.0,0.0,86,-99.99,,,-99.99,WSDL version 342,2013-08-13 06:28:00,
2013-08-13 02:33:00,68.4,64.0,29.32,NE,45,0.0,0.0,87,-99.99,,,-99.99,WSDL version 342,2013-08-13 06:33:00,
2013-08-13 02:38:00,68.3,64.2,29.32,NE,45,0.0,0.0,87,-99.99,,,-99.99,WSDL version 342,2013-08-13 06:38:00,
2013-08-13 02:43:00,68.2,64.1,29.29,NE,45,0.0,0.0,87,-99.99,,,-99.99,WSDL version 342,2013-08-13 06:43:00,
2013-08-13 02:48:00,68.2,64.1,29.29,NE,45,0.0,0.0,87,-99.99,,,-99.99,WSDL version 342,2013-08-13 06:48:00,
2013-08-13 02:53:00,68.3,64.4,29.29,NE,45,0.0,0.0,88,-99.99,,,-99.99,WSDL version 342,2013-08-13 06:53:00,
2013-08-13 02:58:00,68.4,64.6,29.29,NE,45,0.0,0.0,88,-99.99,,,-99.99,WSDL version 342,2013-08-13 06:58:00,
2013-08-13 03:03:00,68.4,65.0,29.29,NE,45,0.0,0.0,89,-99.99,,,-99.99,WSDL version 342,2013-08-13 07:03:00,
2013-08-13 03:08:00,68.4,65.0,29.29,NE,45,0.0,0.0,89,-99.99,,,-99.99,WSDL version 342,2013-08-13 07:08:00,
2013-08-13 03:13:00,68.5,65.0,29.29,NE,45,0.0,0.0,89,-99.99,,,-99.99,WSDL version 342,2013-08-13 07:13:00,
2013-08-13 03:20:00,68.5,64.7,29.29,NE,45,0.0,2.2,88,-99.99,,,-99.99,WSDL version 342,2013-08-13 07:20:00,
2013-08-13 03:25:00,68.5,64.8,29.29,NE,45,0.0,0.0,88,-99.99,,,-99.99,WSDL version 342,2013-08-13 07:25:00,
2013-08-13 03:30:00,68.5,65.0,29.26,NE,45,0.0,0.0,89,-99.99,,,-99.99,WSDL version 342,2013-08-13 07:30:00,
2013-08-13 03:35:00,68.5,65.1,29.26,NE,45,0.0,0.0,89,-99.99,,,-99.99,WSDL version 342,2013-08-13 07:35:00,
2013-08-13 03:40:00,68.7,65.3,29.26,NE,45,0.0,0.0,89,-99.99,,,-99.99,WSDL version 342,2013-08-13 07:40:00,
2013-08-13 03:45:00,68.7,65.3,29.26,NE,45,0.0,0.0,89,-99.99,,,-99.99,WSDL version 342,2013-08-13 07:45:00,
2013-08-13 03:50:00,68.6,65.2,29.26,NE,45,0.0,0.0,89,-99.99,,,-99.99,WSDL version 342,2013-08-13 07:50:00,
2013-08-13 03:55:00,68.5,65.1,29.26,NE,45,0.0,0.0,89,-99.99,,,-99.99,WSDL version 342,2013-08-13 07:55:00,
2013-08-13 04:00:00,68.5,65.1,29.26,NE,45,0.0,0.0,89,-99.99,,,-99.99,WSDL version 342,2013-08-13 08:00:00,
2013-08-13 04:05:00,68.5,65.3,29.26,NE,45,0.0,0.0,90,-99.99,,,-99.99,WSDL version 342,2013-08-13 08:05:00,
2013-08-13 04:10:00,68.6,65.6,29.26,NE,45,0.0,0.0,90,-99.99,,,-99.99,WSDL version 342,2013-08-13 08:10:00,
2013-08-13 04:15:00,68.7,66.0,29.26,NE,45,0.0,0.0,91,-99.99,,,-99.99,WSDL version 342,2013-08-13 08:15:00,
2013-08-13 04:20:00,68.7,66.0,29.26,NE,45,0.0,0.0,91,-99.99,,,-99.99,WSDL version 342,2013-08-13 08:20:00,
2013-08-13 04:25:00,68.5,65.8,29.26,NE,45,0.0,0.0,91,-99.99,,,-99.99,WSDL version 342,2013-08-13 08:25:00,
2013-08-13 04:30:00,68.5,65.8,29.23,NE,45,0.0,0.0,91,-99.99,,,-99.99,WSDL version 342,2013-08-13 08:30:00,
2013-08-13 04:35:00,68.5,65.8,29.23,NE,45,0.0,0.0,91,-99.99,,,-99.99,WSDL version 342,2013-08-13 08:35:00,
2013-08-13 04:40:00,68.5,65.5,29.23,NE,45,0.0,0.0,90,-99.99,,,-99.99,WSDL version 342,2013-08-13 08:40:00,
2013-08-13 04:45:00,68.5,65.5,29.26,NE,45,0.0,0.0,90,-99.99,,,-99.99,WSDL version 342,2013-08-13 08:45:00,
2013-08-13 04:51:00,68.5,65.7,29.26,NE,45,0.0,0.0,91,-99.99,,,-99.99,WSDL version 342,2013-08-13 08:51:00,
2013-08-13 04:56:00,68.5,65.8,29.26,NE,45,0.0,0.0,91,-99.99,,,-99.99,WSDL version 342,2013-08-13 08:56:00,
2013-08-13 05:01:00,68.5,65.8,29.23,NE,45,0.0,0.0,91,-99.99,,,-99.99,WSDL version 342,2013-08-13 09:01:00,
2013-08-13 05:06:00,68.5,65.8,29.23,NE,45,0.0,0.0,91,-99.99,,,-99.99,WSDL version 342,2013-08-13 09:06:00,
2013-08-13 05:11:00,68.5,65.8,29.23,ENE,68,0.0,0.0,91,-99.99,,,-99.99,WSDL version 342,2013-08-13 09:11:00,
2013-08-13 05:16:00,68.5,65.8,29.26,NE,45,0.0,0.0,91,-99.99,,,-99.99,WSDL version 342,2013-08-13 09:16:00,
2013-08-13 05:21:00,68.5,65.8,29.26,SE,135,0.0,1.6,91,-99.99,,,-99.99,WSDL version 342,2013-08-13 09:21:00,
2013-08-13 05:26:00,68.5,66.1,29.26,SE,135,0.0,1.6,92,-99.99,,,-99.99,WSDL version 342,2013-08-13 09:26:00,
2013-08-13 05:31:00,68.5,66.2,29.26,SE,135,0.0,0.0,92,-99.99,,,-99.99,WSDL version 342,2013-08-13 09:31:00,
2013-08-13 05:36:00,68.5,66.2,29.26,SE,135,0.0,0.0,92,-99.99,,,-99.99,WSDL version 342,2013-08-13 09:36:00,
2013-08-13 05:41:00,68.5,66.2,29.26,SE,135,0.0,0.0,92,-99.99,,,-99.99,WSDL version 342,2013-08-13 09:41:00,
2013-08-13 05:46:00,68.5,66.2,29.26,SE,135,0.0,0.0,92,-99.99,,,-99.99,WSDL version 342,2013-08-13 09:46:00,
2013-08-13 05:51:00,68.5,66.2,29.26,SE,135,0.0,0.0,92,-99.99,,,-99.99,WSDL version 342,2013-08-13 09:51:00,
2013-08-13 05:56:00,68.5,66.2,29.26,SE,135,0.0,0.0,92,-99.99,,,-99.99,WSDL version 342,2013-08-13 09:56:00,
2013-08-13 06:01:00,68.5,66.2,29.26,SE,135,0.0,0.0,92,-99.99,,,-99.99,WSDL version 342,2013-08-13 10:01:00,
2013-08-13 06:06:00,68.5,66.2,29.26,SE,135,0.0,0.0,92,-99.99,,,-99.99,WSDL version 342,2013-08-13 10:06:00,
2013-08-13 06:11:00,68.6,66.3,29.26,SE,135,0.0,0.0,92,-99.99,,,-99.99,WSDL version 342,2013-08-13 10:11:00,
2013-08-13 06:16:00,68.7,66.5,29.26,SE,135,0.0,0.0,92,-99.99,,,-99.99,WSDL version 342,2013-08-13 10:16:00,
2013-08-13 06:21:00,68.7,66.4,29.26,SE,135,0.0,0.0,92,-99.99,,,-99.99,WSDL version 342,2013-08-13 10:21:00,
2013-08-13 06:26:00,68.7,66.3,29.26,SE,135,0.0,0.0,92,-99.99,,,-99.99,WSDL version 342,2013-08-13 10:26:00,
2013-08-13 06:31:00,68.7,66.4,29.26,SE,135,0.0,0.0,92,-99.99,,,-99.99,WSDL version 342,2013-08-13 10:31:00,
2013-08-13 06:36:00,68.7,66.5,29.26,East,90,0.0,1.1,93,-99.99,,,-99.99,WSDL version 342,2013-08-13 10:36:00,
2013-08-13 06:41:00,68.8,66.8,29.26,East,100,0.0,1.1,93,-99.99,,,-99.99,WSDL version 342,2013-08-13 10:41:00,
2013-08-13 06:46:00,69.0,67.0,29.26,ENE,68,0.0,2.0,93,-99.99,,,-99.99,WSDL version 342,2013-08-13 10:46:00,
2013-08-13 06:51:00,69.1,67.4,29.26,WNW,302,0.0,2.0,94,-99.99,,,-99.99,WSDL version 342,2013-08-13 10:51:00,
2013-08-13 06:56:00,69.1,67.3,29.26,ESE,103,0.6,3.4,93,-99.99,,,-99.99,WSDL version 342,2013-08-13 10:56:00,
2013-08-13 07:01:00,69.1,67.1,29.26,East,87,0.3,3.4,93,-99.99,,,-99.99,WSDL version 342,2013-08-13 11:01:00,
2013-08-13 07:06:00,69.1,67.1,29.26,WSW,241,0.0,2.0,93,-99.99,,,-99.99,WSDL version 342,2013-08-13 11:06:00,
2013-08-13 07:11:00,69.1,67.1,29.26,ENE,68,0.0,1.3,93,-99.99,,,-99.99,WSDL version 342,2013-08-13 11:11:00,
2013-08-13 07:16:00,69.1,67.1,29.26,NE,41,0.0,1.1,93,-99.99,,,-99.99,WSDL version 342,2013-08-13 11:16:00,
2013-08-13 07:21:00,69.1,67.1,29.26,North,360,0.0,0.9,93,-99.99,,,-99.99,WSDL version 342,2013-08-13 11:21:00,
2013-08-13 07:26:00,69.1,67.1,29.26,SE,135,0.0,0.0,93,-99.99,,,-99.99,WSDL version 342,2013-08-13 11:26:00,
2013-08-13 07:31:00,69.1,67.2,29.26,SE,135,0.0,0.0,94,-99.99,,,-99.99,WSDL version 342,2013-08-13 11:31:00,
2013-08-13 07:36:00,69.1,67.4,29.26,SE,135,0.0,0.0,94,-99.99,,,-99.99,WSDL version 342,2013-08-13 11:36:00,
2013-08-13 07:41:00,69.1,67.3,29.26,North,3,0.0,0.0,94,-99.99,,,-99.99,WSDL version 342,2013-08-13 11:41:00,
2013-08-13 07:46:00,69.0,67.3,29.26,NE,45,0.0,0.0,94,-99.99,,,-99.99,WSDL version 342,2013-08-13 11:46:00,
2013-08-13 07:52:00,68.9,66.9,29.26,NNE,23,0.0,1.3,93,-99.99,,,-99.99,WSDL version 342,2013-08-13 11:52:00,
2013-08-13 07:57:00,68.7,66.7,29.26,NNE,23,0.0,1.3,93,-99.99,,,-99.99,WSDL version 342,2013-08-13 11:57:00,
2013-08-13 08:02:00,68.5,66.5,29.26,NNW,338,0.0,0.0,93,-99.99,,,-99.99,WSDL version 342,2013-08-13 12:02:00,
2013-08-13 08:07:00,68.5,66.5,29.26,East,79,0.0,0.0,93,-99.99,,,-99.99,WSDL version 342,2013-08-13 12:07:00,
2013-08-13 08:12:00,68.4,66.5,29.26,ENE,60,0.0,0.0,93,-99.99,,,-99.99,WSDL version 342,2013-08-13 12:12:00,
2013-08-13 08:17:00,68.2,66.2,29.23,ENE,58,0.0,0.0,93,-99.99,,,-99.99,WSDL version 342,2013-08-13 12:17:00,
2013-08-13 08:22:00,68.1,66.1,29.23,SE,135,0.0,0.0,93,-99.99,,,-99.99,WSDL version 342,2013-08-13 12:22:00,
2013-08-13 08:27:00,67.9,65.9,29.23,SSE,158,0.0,0.0,93,-99.99,,,-99.99,WSDL version 342,2013-08-13 12:27:00,
2013-08-13 08:32:00,67.7,65.7,29.26,SSE,158,0.0,0.0,93,-99.99,,,-99.99,WSDL version 342,2013-08-13 12:32:00,
2013-08-13 08:37:00,67.6,65.6,29.26,SSE,158,0.0,0.0,93,-99.99,,,-99.99,WSDL version 342,2013-08-13 12:37:00,
2013-08-13 08:42:00,67.5,65.5,29.26,SSE,158,0.0,0.0,93,-99.99,,,-99.99,WSDL version 342,2013-08-13 12:42:00,
2013-08-13 08:47:00,67.3,65.3,29.26,SW,221,0.0,0.9,93,-99.99,,,-99.99,WSDL version 342,2013-08-13 12:47:00,
2013-08-13 08:52:00,67.1,65.1,29.26,WNW,298,0.0,1.1,93,-99.99,,,-99.99,WSDL version 342,2013-08-13 12:52:00,
2013-08-13 08:57:00,67.0,65.0,29.26,NW,315,0.0,1.3,93,-99.99,,,-99.99,WSDL version 342,2013-08-13 12:57:00,
2013-08-13 09:02:00,66.9,64.9,29.26,NW,309,0.0,1.3,93,-99.99,,,-99.99,WSDL version 342,2013-08-13 13:02:00,
2013-08-13 09:07:00,66.8,64.8,29.26,WNW,299,0.0,1.1,93,-99.99,,,-99.99,WSDL version 342,2013-08-13 13:07:00,
2013-08-13 09:12:00,66.7,64.8,29.26,NNW,338,0.0,0.0,94,-99.99,,,-99.99,WSDL version 342,2013-08-13 13:12:00,
2013-08-13 09:17:00,66.6,65.0,29.23,NW,321,0.0,0.0,94,-99.99,,,-99.99,WSDL version 342,2013-08-13 13:17:00,
2013-08-13 09:22:00,66.6,65.0,29.23,WNW,293,0.2,1.6,94,-99.99,,,-99.99,WSDL version 342,2013-08-13 13:22:00,
2013-08-13 09:27:00,66.6,64.9,29.23,WNW,286,0.6,2.5,94,-99.99,,,-99.99,WSDL version 342,2013-08-13 13:27:00,
2013-08-13 09:32:00,66.3,64.6,29.23,WSW,241,1.6,2.7,94,-99.99,,,-99.99,WSDL version 342,2013-08-13 13:32:00,
2013-08-13 09:37:00,66.0,64.4,29.23,WSW,248,1.2,3.4,94,-99.99,,,-99.99,WSDL version 342,2013-08-13 13:37:00,
2013-08-13 09:42:00,65.8,64.3,29.21,West,276,0.4,3.4,96,-99.99,,,-99.99,WSDL version 342,2013-08-13 13:42:00,
2013-08-13 09:47:00,65.8,64.6,29.21,East,90,0.0,2.9,97,-99.99,,,-99.99,WSDL version 342,2013-08-13 13:47:00,
2013-08-13 09:52:00,65.7,64.7,29.21,NE,45,0.0,2.2,97,-99.99,,,-99.99,WSDL version 342,2013-08-13 13:52:00,
2013-08-13 09:57:00,65.5,64.5,29.21,SSW,196,0.5,2.2,97,-99.99,,,-99.99,WSDL version 342,2013-08-13 13:57:00,
2013-08-13 10:02:00,65.5,64.8,29.21,East,101,1.0,2.0,98,-99.99,,,-99.99,WSDL version 342,2013-08-13 14:02:00,
2013-08-13 10:07:00,65.5,64.8,29.21,ENE,64,0.7,2.7,98,-99.99,,,-99.99,WSDL version 342,2013-08-13 14:07:00,
2013-08-13 10:12:00,65.6,65.3,29.18,NE,45,0.0,2.7,99,-99.99,,,-99.99,WSDL version 342,2013-08-13 14:12:00,
2013-08-13 10:17:00,65.7,65.6,29.18,ESE,109,0.9,1.3,100,-99.99,,,-99.99,WSDL version 342,2013-08-13 14:17:00,
2013-08-13 10:22:00,65.7,65.7,29.18,SSE,151,1.3,3.8,100,-99.99,,,-99.99,WSDL version 342,2013-08-13 14:22:00,
2013-08-13 10:27:00,65.7,65.7,29.18,ENE,68,0.0,3.8,100,-99.99,,,-99.99,WSDL version 342,2013-08-13 14:27:00,
2013-08-13 10:32:00,65.9,65.9,29.18,NE,45,0.0,2.2,100,-99.99,,,-99.99,WSDL version 342,2013-08-13 14:32:00,
2013-08-13 10:37:00,66.3,66.3,29.18,WNW,293,0.0,1.3,100,-99.99,,,-99.99,WSDL version 342,2013-08-13 14:37:00,
2013-08-13 10:42:00,67.0,67.0,29.21,West,279,0.7,0.0,100,-99.99,,,-99.99,WSDL version 342,2013-08-13 14:42:00,
2013-08-13 10:47:00,67.4,67.4,29.21,SW,225,0.9,1.1,100,-99.99,,,-99.99,WSDL version 342,2013-08-13 14:47:00,
2013-08-13 10:52:00,67.7,67.7,29.21,SSW,203,0.0,1.1,100,-99.99,,,-99.99,WSDL version 342,2013-08-13 14:52:00,
2013-08-13 10:57:00,68.0,68.0,29.21,SSW,203,1.1,1.1,100,-99.99,,,-99.99,WSDL version 342,2013-08-13 14:57:00,
2013-08-13 11:02:00,68.0,68.0,29.21,SSW,203,1.1,1.1,100,-99.99,,,-99.99,WSDL version 342,2013-08-13 15:02:00,
2013-08-13 11:07:00,68.0,68.0,29.21,SSW,203,1.1,1.1,100,-99.99,,,-99.99,WSDL version 342,2013-08-13 15:07:00,
2013-08-13 11:13:00,68.1,68.1,29.18,SSW,203,0.9,0.9,100,-99.99,,,-99.99,WSDL version 342,2013-08-13 15:13:00,
2013-08-13 11:18:00,68.2,68.2,29.18,SSE,158,0.7,2.0,100,-99.99,,,-99.99,WSDL version 342,2013-08-13 15:18:00,
2013-08-13 11:24:00,68.2,68.2,29.18,NNE,15,0.0,2.0,100,-99.99,,,-99.99,WSDL version 342,2013-08-13 15:24:00,
2013-08-13 11:29:00,68.2,68.2,29.18,SSE,158,0.0,0.0,100,-99.99,,,-99.99,WSDL version 342,2013-08-13 15:29:00,
2013-08-13 11:34:00,68.4,68.4,29.18,SSE,158,0.0,0.0,100,-99.99,,,-99.99,WSDL version 342,2013-08-13 15:34:00,
2013-08-13 11:39:00,68.9,68.9,29.18,SSE,158,0.0,0.0,100,-99.99,,,-99.99,WSDL version 342,2013-08-13 15:39:00,
2013-08-13 11:44:00,69.3,69.3,29.18,North,360,0.0,0.0,100,-99.99,,,-99.99,WSDL version 342,2013-08-13 15:44:00,
2013-08-13 11:50:00,69.8,69.8,29.18,North,349,0.2,1.1,100,-99.99,,,-99.99,WSDL version 342,2013-08-13 15:50:00,
2013-08-13 11:55:00,70.2,70.2,29.18,North,360,0.0,2.2,100,-99.99,,,-99.99,WSDL version 342,2013-08-13 15:55:00,
2013-08-13 12:00:00,70.7,70.7,29.18,NNE,15,0.3,2.2,100,-99.99,,,-99.99,WSDL version 342,2013-08-13 16:00:00,
2013-08-13 12:05:00,70.9,70.9,29.18,North,360,2.2,4.0,100,-99.99,,,-99.99,WSDL version 342,2013-08-13 16:05:00,
2013-08-13 12:10:00,71.6,71.6,29.18,NE,45,0.0,4.0,100,-99.99,,,-99.99,WSDL version 342,2013-08-13 16:10:00,
2013-08-13 12:15:00,72.0,71.8,29.18,NNE,23,0.9,2.0,98,-99.99,,,-99.99,WSDL version 342,2013-08-13 16:15:00,
2013-08-13 12:20:00,71.9,70.4,29.18,North,349,0.0,0.0,94,-99.99,,,-99.99,WSDL version 342,2013-08-13 16:20:00,
2013-08-13 12:26:00,72.6,70.4,29.18,NW,309,0.0,0.0,92,-99.99,,,-99.99,WSDL version 342,2013-08-13 16:26:00,
2013-08-13 12:31:00,72.9,70.2,29.18,NW,315,0.0,0.0,89,-99.99,,,-99.99,WSDL version 342,2013-08-13 16:31:00,
2013-08-13 12:36:00,73.1,69.5,29.18,North,352,0.0,0.9,88,-99.99,,,-99.99,WSDL version 342,2013-08-13 16:36:00,
2013-08-13 12:41:00,74.2,70.4,29.18,NNW,338,0.4,1.3,87,-99.99,,,-99.99,WSDL version 342,2013-08-13 16:41:00,
2013-08-13 12:46:00,74.2,66.9,29.18,North,6,0.7,1.6,75,-99.99,,,-99.99,WSDL version 342,2013-08-13 16:46:00,
2013-08-13 12:51:00,74.3,66.2,29.18,North,6,0.6,1.6,77,-99.99,,,-99.99,WSDL version 342,2013-08-13 16:51:00,
2013-08-13 12:56:00,74.8,67.1,29.18,North,354,0.2,1.6,78,-99.99,,,-99.99,WSDL version 342,2013-08-13 16:56:00,
2013-08-13 13:01:00,74.7,65.5,29.18,WSW,248,1.1,2.7,71,-99.99,,,-99.99,WSDL version 342,2013-08-13 17:01:00,
2013-08-13 13:06:00,75.3,62.7,29.18,NNW,341,1.3,2.7,68,-99.99,,,-99.99,WSDL version 342,2013-08-13 17:06:00,
2013-08-13 13:13:00,76.1,64.9,29.15,North,349,1.3,2.2,67,-99.99,,,-99.99,WSDL version 342,2013-08-13 17:13:00,
2013-08-13 13:18:00,76.1,65.0,29.15,WNW,293,0.6,2.2,69,-99.99,,,-99.99,WSDL version 342,2013-08-13 17:18:00,
2013-08-13 13:23:00,76.0,64.2,29.15,NNW,338,0.0,2.2,68,-99.99,,,-99.99,WSDL version 342,2013-08-13 17:23:00,
2013-08-13 13:28:00,76.1,64.6,29.18,North,360,0.0,2.2,68,-99.99,,,-99.99,WSDL version 342,2013-08-13 17:28:00,
2013-08-13 13:33:00,75.7,64.3,29.18,North,360,0.0,0.0,67,-99.99,,,-99.99,WSDL version 342,2013-08-13 17:33:00,
2013-08-13 13:38:00,75.6,64.4,29.18,WNW,293,0.0,0.0,66,-99.99,,,-99.99,WSDL version 342,2013-08-13 17:38:00,
2013-08-13 13:43:00,75.0,62.9,29.15,NW,325,0.0,1.1,66,-99.99,,,-99.99,WSDL version 342,2013-08-13 17:43:00,
2013-08-13 13:48:00,75.2,63.4,29.15,NNE,23,0.0,1.1,66,-99.99,,,-99.99,WSDL version 342,2013-08-13 17:48:00,
2013-08-13 13:53:00,75.5,63.5,29.15,WNW,300,0.0,0.0,67,-99.99,,,-99.99,WSDL version 342,2013-08-13 17:53:00,
2013-08-13 13:56:00,76.0,63.7,29.15,NW,321,0.0,2.5,65,-99.99,,,-99.99,WSDL version 342,2013-08-13 17:56:00,
2013-08-13 14:01:00,75.9,61.6,29.15,WNW,293,0.0,2.5,61,-99.99,,,-99.99,WSDL version 342,2013-08-13 18:01:00,
2013-08-13 14:06:00,76.6,61.2,29.15,WNW,297,0.0,2.5,58,-99.99,,,-99.99,WSDL version 342,2013-08-13 18:06:00,
2013-08-13 14:11:00,76.8,59.4,29.15,West,270,0.0,0.0,54,-99.99,,,-99.99,WSDL version 342,2013-08-13 18:11:00,
2013-08-13 14:16:00,76.5,60.0,29.15,West,270,0.0,1.6,57,-99.99,,,-99.99,WSDL version 342,2013-08-13 18:16:00,
2013-08-13 14:21:00,76.4,60.5,29.15,NW,315,0.0,1.6,59,-99.99,,,-99.99,WSDL version 342,2013-08-13 18:21:00,
2013-08-13 14:26:00,76.6,60.9,29.15,West,276,0.6,1.1,58,-99.99,,,-99.99,WSDL version 342,2013-08-13 18:26:00,
2013-08-13 14:31:00,77.4,60.9,29.15,West,270,0.0,2.0,59,-99.99,,,-99.99,WSDL version 342,2013-08-13 18:31:00,
2013-08-13 14:36:00,78.1,60.0,29.15,West,270,0.0,2.0,53,-99.99,,,-99.99,WSDL version 342,2013-08-13 18:36:00,
2013-08-13 14:41:00,79.3,60.5,29.15,NNW,338,0.7,2.0,51,-99.99,,,-99.99,WSDL version 342,2013-08-13 18:41:00,
2013-08-13 14:46:00,79.1,58.0,29.15,West,270,2.2,2.9,45,-99.99,,,-99.99,WSDL version 342,2013-08-13 18:46:00,
2013-08-13 14:51:00,79.2,55.4,29.15,WNW,288,1.8,2.9,43,-99.99,,,-99.99,WSDL version 342,2013-08-13 18:51:00,
2013-08-13 14:57:00,80.3,58.0,29.15,NW,315,0.9,2.9,47,-99.99,,,-99.99,WSDL version 342,2013-08-13 18:57:00,
2013-08-13 15:02:00,80.8,55.9,29.12,WSW,257,2.1,3.4,41,-99.99,,,-99.99,WSDL version 342,2013-08-13 19:02:00,
2013-08-13 15:07:00,81.7,54.3,29.12,NW,317,1.9,3.4,39,-99.99,,,-99.99,WSDL version 342,2013-08-13 19:07:00,
2013-08-13 15:12:00,83.1,52.0,29.12,WSW,242,2.1,3.1,32,-99.99,,,-99.99,WSDL version 342,2013-08-13 19:12:00,
2013-08-13 15:18:00,84.2,49.7,29.15,West,281,2.7,4.0,30,-99.99,,,-99.99,WSDL version 342,2013-08-13 19:18:00,
2013-08-13 15:24:00,85.3,50.0,29.15,West,263,1.9,4.0,29,-99.99,,,-99.99,WSDL version 342,2013-08-13 19:24:00,
2013-08-13 15:29:00,86.1,49.2,29.15,West,275,1.5,3.6,28,-99.99,,,-99.99,WSDL version 342,2013-08-13 19:29:00,
2013-08-13 15:34:00,86.5,49.6,29.15,North,3,2.0,3.6,28,-99.99,,,-99.99,WSDL version 342,2013-08-13 19:34:00,
2013-08-13 15:39:00,86.9,49.6,29.15,South,186,1.8,3.6,26,-99.99,,,-99.99,WSDL version 342,2013-08-13 19:39:00,
2013-08-13 15:45:00,87.1,48.1,29.12,NNW,328,1.8,3.6,27,-99.99,,,-99.99,WSDL version 342,2013-08-13 19:45:00,
2013-08-13 15:50:00,86.8,45.7,29.12,West,275,2.3,3.6,24,-99.99,,,-99.99,WSDL version 342,2013-08-13 19:50:00,
2013-08-13 15:55:00,86.9,44.4,29.12,South,177,2.0,3.8,23,-99.99,,,-99.99,WSDL version 342,2013-08-13 19:55:00,
2013-08-13 16:00:00,86.7,43.4,29.12,WSW,254,2.3,4.3,23,-99.99,,,-99.99,WSDL version 342,2013-08-13 20:00:00,
2013-08-13 16:05:00,87.0,44.5,29.12,West,273,2.2,4.3,23,-99.99,,,-99.99,WSDL version 342,2013-08-13 20:05:00,
2013-08-13 16:10:00,87.6,44.8,29.12,SW,215,2.1,3.8,23,-99.99,,,-99.99,WSDL version 342,2013-08-13 20:10:00,
2013-08-13 16:15:00,87.9,44.6,29.12,SW,219,2.4,3.8,22,-99.99,,,-99.99,WSDL version 342,2013-08-13 20:15:00,
2013-08-13 16:20:00,87.4,43.6,29.12,WNW,293,1.5,3.8,22,-99.99,,,-99.99,WSDL version 342,2013-08-13 20:20:00,
2013-08-13 16:25:00,88.1,43.9,29.12,NW,318,2.8,3.8,21,-99.99,,,-99.99,WSDL version 342,2013-08-13 20:25:00,
2013-08-13 16:30:00,87.3,42.9,29.12,West,276,2.6,4.0,21,-99.99,,,-99.99,WSDL version 342,2013-08-13 20:30:00,
2013-08-13 16:35:00,87.4,43.0,29.12,SW,235,2.1,4.0,21,-99.99,,,-99.99,WSDL version 342,2013-08-13 20:35:00,
2013-08-13 16:40:00,86.8,42.2,29.12,WSW,251,2.0,3.6,21,-99.99,,,-99.99,WSDL version 342,2013-08-13 20:40:00,
2013-08-13 16:45:00,86.3,42.8,29.12,SSW,211,1.7,3.6,22,-99.99,,,-99.99,WSDL version 342,2013-08-13 20:45:00,
2013-08-13 16:50:00,85.4,44.5,29.12,WSW,257,0.6,3.6,25,-99.99,,,-99.99,WSDL version 342,2013-08-13 20:50:00,
2013-08-13 16:55:00,84.8,43.3,29.12,SSE,165,1.1,3.6,24,-99.99,,,-99.99,WSDL version 342,2013-08-13 20:55:00,
2013-08-13 17:00:00,86.1,46.5,29.12,WSW,248,1.3,3.6,26,-99.99,,,-99.99,WSDL version 342,2013-08-13 21:00:00,
2013-08-13 17:05:00,85.0,45.7,29.12,South,172,0.9,2.7,26,-99.99,,,-99.99,WSDL version 342,2013-08-13 21:05:00,
2013-08-13 17:10:00,84.3,46.7,29.12,North,349,1.2,2.7,28,-99.99,,,-99.99,WSDL version 342,2013-08-13 21:10:00,
2013-08-13 17:16:00,84.8,48.7,29.12,North,360,1.3,2.5,29,-99.99,,,-99.99,WSDL version 342,2013-08-13 21:16:00,
2013-08-13 17:21:00,86.2,49.7,29.12,SW,231,0.7,2.5,28,-99.99,,,-99.99,WSDL version 342,2013-08-13 21:21:00,
2013-08-13 17:26:00,85.9,46.0,29.12,West,270,2.1,3.8,25,-99.99,,,-99.99,WSDL version 342,2013-08-13 21:26:00,
2013-08-13 17:31:00,86.1,45.4,29.12,SW,236,2.0,3.8,24,-99.99,,,-99.99,WSDL version 342,2013-08-13 21:31:00,
2013-08-13 17:36:00,86.0,45.8,29.12,SSW,212,0.2,3.8,25,-99.99,,,-99.99,WSDL version 342,2013-08-13 21:36:00,
2013-08-13 17:41:00,85.7,43.7,29.12,SSE,161,1.7,3.1,23,-99.99,,,-99.99,WSDL version 342,2013-08-13 21:41:00,
2013-08-13 17:46:00,85.2,43.9,29.12,SSW,209,1.1,3.1,24,-99.99,,,-99.99,WSDL version 342,2013-08-13 21:46:00,
2013-08-13 17:51:00,85.0,43.3,29.12,SSE,165,2.8,3.6,23,-99.99,,,-99.99,WSDL version 342,2013-08-13 21:51:00,
2013-08-13 17:56:00,84.8,43.2,29.12,SE,127,1.3,3.6,23,-99.99,,,-99.99,WSDL version 342,2013-08-13 21:56:00,
2013-08-13 18:01:00,84.8,44.9,29.12,North,3,0.4,3.1,26,-99.99,,,-99.99,WSDL version 342,2013-08-13 22:01:00,
2013-08-13 18:06:00,84.6,44.1,29.12,East,100,1.8,4.0,25,-99.99,,,-99.99,WSDL version 342,2013-08-13 22:06:00,
2013-08-13 18:11:00,84.4,46.1,29.12,SE,135,1.0,4.0,26,-99.99,,,-99.99,WSDL version 342,2013-08-13 22:11:00,
2013-08-13 18:16:00,83.9,47.8,29.12,South,173,1.7,2.7,28,-99.99,,,-99.99,WSDL version 342,2013-08-13 22:16:00,
2013-08-13 18:21:00,83.9,47.8,29.12,SW,221,0.3,2.7,29,-99.99,,,-99.99,WSDL version 342,2013-08-13 22:21:00,
2013-08-13 18:26:00,83.8,48.2,29.12,SSE,158,0.4,3.1,29,-99.99,,,-99.99,WSDL version 342,2013-08-13 22:26:00,
2013-08-13 18:31:00,83.6,48.0,29.12,SSE,158,0.5,3.1,29,-99.99,,,-99.99,WSDL version 342,2013-08-13 22:31:00,
2013-08-13 18:36:00,83.2,48.3,29.12,SE,143,1.2,2.0,30,-99.99,,,-99.99,WSDL version 342,2013-08-13 22:36:00,
2013-08-13 18:41:00,82.8,48.2,29.12,South,191,0.4,2.0,30,-99.99,,,-99.99,WSDL version 342,2013-08-13 22:41:00,
2013-08-13 18:48:00,81.4,47.6,29.09,North,0,0.0,2.0,31,-99.99,,,-99.99,WSDL version 342,2013-08-13 22:48:00,
2013-08-13 18:53:00,80.6,47.9,29.09,SSW,203,0.0,1.3,32,-99.99,,,-99.99,WSDL version 342,2013-08-13 22:53:00,
2013-08-13 18:58:00,79.7,48.4,29.12,SSW,203,0.0,0.0,34,-99.99,,,-99.99,WSDL version 342,2013-08-13 22:58:00,
2013-08-13 19:03:00,79.1,48.6,29.12,SSW,203,0.0,0.0,35,-99.99,,,-99.99,WSDL version 342,2013-08-13 23:03:00,
2013-08-13 19:08:00,78.6,50.0,29.12,SSW,203,0.0,0.0,38,-99.99,,,-99.99,WSDL version 342,2013-08-13 23:08:00,
2013-08-13 19:13:00,78.1,50.5,29.12,North,-999,-999.0,-999.0,39,-99.99,,,-99.99,WSDL version 342,2013-08-13 23:13:00,
2013-08-13 19:18:00,77.4,50.3,29.12,SSW,203,1.3,2.0,39,-99.99,,,-99.99,WSDL version 342,2013-08-13 23:18:00,
2013-08-13 19:24:00,76.8,50.9,29.12,West,270,0.9,2.0,41,-99.99,,,-99.99,WSDL version 342,2013-08-13 23:24:00,
2013-08-13 19:29:00,76.6,51.3,29.12,ESE,122,0.0,2.0,42,-99.99,,,-99.99,WSDL version 342,2013-08-13 23:29:00,
2013-08-13 19:34:00,76.1,51.5,29.12,ENE,68,0.0,1.1,43,-99.99,,,-99.99,WSDL version 342,2013-08-13 23:34:00,
2013-08-13 19:39:00,75.7,51.8,29.12,ENE,68,0.0,0.9,44,-99.99,,,-99.99,WSDL version 342,2013-08-13 23:39:00,
2013-08-13 19:44:00,75.3,51.9,29.12,ENE,68,0.0,0.0,44,-99.99,,,-99.99,WSDL version 342,2013-08-13 23:44:00,
2013-08-13 19:49:00,75.1,52.2,29.12,North,0,0.0,0.0,45,-99.99,,,-99.99,WSDL version 342,2013-08-13 23:49:00,
2013-08-13 19:54:00,74.8,53.4,29.12,North,-999,-999.0,-999.0,48,-99.99,,,-99.99,WSDL version 342,2013-08-13 23:54:00,
2013-08-13 20:02:00,74.5,54.2,29.15,SE,135,0.4,0.0,50,-99.99,,,-99.99,WSDL version 342,2013-08-14 00:02:00,
2013-08-13 20:07:00,74.3,54.5,29.15,SSE,158,0.0,0.0,50,-99.99,,,-99.99,WSDL version 342,2013-08-14 00:07:00,
2013-08-13 20:12:00,74.2,54.8,29.15,SSE,158,0.0,0.0,51,-99.99,,,-99.99,WSDL version 342,2013-08-14 00:12:00,
2013-08-13 20:17:00,73.9,55.1,29.15,SSE,158,0.0,0.0,52,-99.99,,,-99.99,WSDL version 342,2013-08-14 00:17:00,
2013-08-13 20:22:00,73.8,55.8,29.15,SSE,158,0.0,1.1,53,-99.99,,,-99.99,WSDL version 342,2013-08-14 00:22:00,
2013-08-13 20:27:00,73.6,55.9,29.12,SSW,203,2.0,2.2,54,-99.99,,,-99.99,WSDL version 342,2013-08-14 00:27:00,
2013-08-13 20:37:00,73.2,56.2,29.12,SSW,203,2.0,2.2,56,-99.99,,,-99.99,WSDL version 342,2013-08-14 00:37:00,
2013-08-13 20:42:00,73.0,56.5,29.12,SSE,158,0.9,2.2,57,-99.99,,,-99.99,WSDL version 342,2013-08-14 00:42:00,
2013-08-13 20:47:00,72.9,56.8,29.15,South,180,1.1,1.3,57,-99.99,,,-99.99,WSDL version 342,2013-08-14 00:47:00,
2013-08-13 20:52:00,72.8,57.0,29.15,SSW,194,1.1,3.1,58,-99.99,,,-99.99,WSDL version 342,2013-08-14 00:52:00,
2013-08-13 20:57:00,72.7,57.5,29.15,South,180,1.2,3.1,59,-99.99,,,-99.99,WSDL version 342,2013-08-14 00:57:00,
2013-08-13 21:02:00,72.7,58.0,29.15,SSW,196,1.1,2.9,60,-99.99,,,-99.99,WSDL version 342,2013-08-14 01:02:00,
2013-08-13 21:07:00,72.8,58.1,29.15,South,180,1.1,2.7,60,-99.99,,,-99.99,WSDL version 342,2013-08-14 01:07:00,
2013-08-13 21:12:00,72.9,57.8,29.15,South,180,1.1,2.7,59,-99.99,,,-99.99,WSDL version 342,2013-08-14 01:12:00,
2013-08-13 21:17:00,72.8,57.7,29.15,South,180,1.1,1.3,60,-99.99,,,-99.99,WSDL version 342,2013-08-14 01:17:00,
2013-08-13 21:22:00,72.6,58.1,29.15,ESE,105,0.0,1.3,60,-99.99,,,-99.99,WSDL version 342,2013-08-14 01:22:00,
2013-08-13 21:27:00,72.4,58.2,29.15,North,360,0.0,1.3,62,-99.99,,,-99.99,WSDL version 342,2013-08-14 01:27:00,
2013-08-13 21:32:00,72.1,58.4,29.15,North,360,0.0,1.1,62,-99.99,,,-99.99,WSDL version 342,2013-08-14 01:32:00,
2013-08-13 21:37:00,71.9,58.3,29.15,North,360,0.0,1.1,62,-99.99,,,-99.99,WSDL version 342,2013-08-14 01:37:00,
2013-08-13 21:42:00,71.5,59.1,29.15,North,-999,-999.0,-999.0,68,-99.99,,,-99.99,WSDL version 342,2013-08-14 01:42:00,
2013-08-13 21:47:00,71.2,59.1,29.18,North,-999,-999.0,-999.0,64,-99.99,,,-99.99,WSDL version 342,2013-08-14 01:47:00,
2013-08-13 21:53:00,71.1,58.1,29.18,North,-999,-999.0,-999.0,63,-99.99,,,-99.99,WSDL version 342,2013-08-14 01:53:00,
2013-08-13 21:58:00,70.7,57.2,29.15,North,-999,-999.0,-999.0,62,-99.99,,,-99.99,WSDL version 342,2013-08-14 01:58:00,
2013-08-13 22:03:00,70.3,56.7,29.15,WNW,284,1.3,2.0,62,-99.99,,,-99.99,WSDL version 342,2013-08-14 02:03:00,
2013-08-13 22:08:00,70.0,56.3,29.15,North,360,1.1,2.0,62,-99.99,,,-99.99,WSDL version 342,2013-08-14 02:08:00,
2013-08-13 22:14:00,69.6,56.0,29.15,WNW,293,0.0,1.3,62,-99.99,,,-99.99,WSDL version 342,2013-08-14 02:14:00,
2013-08-13 22:19:00,69.4,55.8,29.15,West,263,0.0,0.9,62,-99.99,,,-99.99,WSDL version 342,2013-08-14 02:19:00,
2013-08-13 22:24:00,69.1,55.2,29.15,SSW,212,0.0,1.1,61,-99.99,,,-99.99,WSDL version 342,2013-08-14 02:24:00,
2013-08-13 22:29:00,68.9,54.9,29.15,SW,225,0.0,1.1,61,-99.99,,,-99.99,WSDL version 342,2013-08-14 02:29:00,
2013-08-13 22:34:00,68.6,54.8,29.15,WSW,248,0.0,0.0,62,-99.99,,,-99.99,WSDL version 342,2013-08-14 02:34:00,
2013-08-13 22:39:00,68.3,54.8,29.15,WSW,248,0.0,0.0,62,-99.99,,,-99.99,WSDL version 342,2013-08-14 02:39:00,
2013-08-13 22:44:00,67.9,54.8,29.12,West,270,0.0,1.6,64,-99.99,,,-99.99,WSDL version 342,2013-08-14 02:44:00,
2013-08-13 22:49:00,67.7,55.3,29.12,West,270,0.0,1.6,65,-99.99,,,-99.99,WSDL version 342,2013-08-14 02:49:00,
2013-08-13 22:54:00,67.4,55.7,29.12,West,270,0.0,0.0,66,-99.99,,,-99.99,WSDL version 342,2013-08-14 02:54:00,
2013-08-13 22:59:00,67.3,56.0,29.15,West,270,0.0,0.0,67,-99.99,,,-99.99,WSDL version 342,2013-08-14 02:59:00,
2013-08-13 23:04:00,67.0,56.1,29.15,West,270,0.0,0.0,68,-99.99,,,-99.99,WSDL version 342,2013-08-14 03:04:00,
2013-08-13 23:09:00,66.9,55.8,29.15,West,270,0.0,0.0,68,-99.99,,,-99.99,WSDL version 342,2013-08-14 03:09:00,
2013-08-13 23:14:00,66.7,56.3,29.18,West,270,0.0,0.0,69,-99.99,,,-99.99,WSDL version 342,2013-08-14 03:14:00,
2013-08-13 23:19:00,66.6,56.5,29.18,West,270,0.0,0.0,70,-99.99,,,-99.99,WSDL version 342,2013-08-14 03:19:00,
2013-08-13 23:24:00,66.5,56.7,29.18,North,-999,-999.0,-999.0,71,-99.99,,,-99.99,WSDL version 342,2013-08-14 03:24:00,
2013-08-13 23:29:00,66.4,57.1,29.18,West,270,0.0,0.0,72,-99.99,,,-99.99,WSDL version 342,2013-08-14 03:29:00,
2013-08-13 23:34:00,66.2,56.9,29.18,West,270,0.0,0.0,72,-99.99,,,-99.99,WSDL version 342,2013-08-14 03:34:00,
2013-08-13 23:39:00,66.2,57.3,29.18,West,270,0.0,0.0,73,-99.99,,,-99.99,WSDL version 342,2013-08-14 03:39:00,
2013-08-13 23:44:00,66.1,57.7,29.18,West,270,0.0,0.9,75,-99.99,,,-99.99,WSDL version 342,2013-08-14 03:44:00,
2013-08-13 23:49:00,66.0,57.9,29.18,West,270,0.0,1.1,75,-99.99,,,-99.99,WSDL version 342,2013-08-14 03:49:00,
2013-08-13 23:54:00,65.8,58.1,29.18,West,270,0.4,1.3,76,-99.99,,,-99.99,WSDL version 342,2013-08-14 03:54:00,
2013-08-13 23:59:00,65.8,58.1,29.18,West,270,1.0,2.0,76,-99.99,,,-99.99,WSDL version 342,2013-08-14 03:59:00,